Hallock, MN

5:28 PM CST on February 21, 2018 (GMT -0600)
Hallock Municipal

Weather History for KHCO - September, 2013

Change the Weather History Date:

Sunday, September 8, 2013

  Actual Average Record
Temperature  
Mean Temperature 64 °F -  
Max Temperature 69 °F 71 °F 89 °F (1976)
Min Temperature 60 °F 47 °F 33 °F (1992)
Growing Degree Days 14 (Base 50)    
Moisture  
Dew Point 55 °F    
Average Humidity 71    
Maximum Humidity 88    
Minimum Humidity 56    
Precipitation  
Precipitation 0.00 in - - ()
Sea Level Pressure  
Sea Level Pressure 29.98 in    
Wind  
Wind Speed 8 mph (ESE)    
Max Wind Speed 10 mph    
Max Gust Speed 17 mph    
Visibility 10 miles    
Events      
Averages and records for this station are not official NWS values.
T = Trace of Precipitation, MM = Missing Value Source: NWS Daily Summary

Daily Weather History Graph

Daily Weather History Graph

Search for Another Location

Airport or City:

Trip Planner

Search our weather history database for the weather conditions in past years. The results will help you decide how hot, cold, wet, or windy it might be!

Date:

Astronomy

Sep. 08, 2013 Rise Set
Actual Time 6:54 AM CDT 7:54 PM CDT
Civil Twilight 6:22 AM CDT 8:26 PM CDT
Nautical Twilight 5:44 AM CDT 9:05 PM CDT
Astronomical Twilight 5:03 AM CDT 9:45 PM CDT
Moon 10:35 AM CDT (9/8) 9:07 PM CDT (9/8)
Length of Visible Light 14h 03m
Length of Day
12h 59m
Waxing Crescent, 11% of the Moon is Illuminated
Sep 8
Waxing Crescent
Sep 12
First Quarter
Sep 19
Full
Sep 26
Last Quarter
Oct 4
New

Hourly Weather History & Observations

Time (CDT) Temp. Dew Point Humidity Pressure Visibility Wind Dir Wind Speed Gust Speed Precip Events Conditions
12:13 AM 60.8 °F 53.6 °F 77% 30.12 in 10.0 mi NE 6.9 mph - N/A   Clear
12:33 AM 60.8 °F 53.6 °F 77% 30.11 in 10.0 mi NE 6.9 mph - N/A   Clear
12:53 AM 60.8 °F 53.6 °F 77% 30.11 in 10.0 mi NE 5.8 mph - N/A   Clear
1:13 AM 60.8 °F 53.6 °F 77% 30.10 in 10.0 mi ENE 5.8 mph - N/A   Clear
1:33 AM 60.8 °F 53.6 °F 77% 30.10 in 10.0 mi ENE 6.9 mph - N/A   Clear
1:53 AM 60.8 °F 53.6 °F 77% 30.10 in 10.0 mi ENE 6.9 mph - N/A   Clear
2:13 AM 60.8 °F 53.6 °F 77% 30.10 in 10.0 mi East 8.1 mph - N/A   Clear
2:33 AM 60.8 °F 53.6 °F 77% 30.10 in 10.0 mi ENE 8.1 mph - N/A   Clear
2:53 AM 60.8 °F 53.6 °F 77% 30.10 in 10.0 mi East 8.1 mph - N/A   Clear
3:13 AM 60.8 °F 53.6 °F 77% 30.10 in 10.0 mi ENE 8.1 mph - N/A   Clear
3:33 AM 60.8 °F 51.8 °F 72% 30.09 in 10.0 mi East 9.2 mph - N/A   Clear
3:53 AM 60.8 °F 51.8 °F 72% 30.08 in 10.0 mi East 8.1 mph - N/A   Clear
4:13 AM 60.8 °F 51.8 °F 72% 30.08 in 10.0 mi East 9.2 mph - N/A   Clear
4:33 AM 60.8 °F 53.6 °F 77% 30.07 in 10.0 mi East 9.2 mph - N/A   Clear
4:53 AM 60.8 °F 53.6 °F 77% 30.06 in 10.0 mi East 9.2 mph - N/A   Clear
5:13 AM 60.8 °F 53.6 °F 77% 30.06 in 10.0 mi East 9.2 mph - N/A   Clear
5:33 AM 60.8 °F 53.6 °F 77% 30.06 in 10.0 mi East 9.2 mph - N/A   Clear
5:54 AM 60.8 °F 53.6 °F 77% 30.06 in 10.0 mi East 9.2 mph - N/A   Clear
6:13 AM 60.8 °F 53.6 °F 77% 30.05 in 10.0 mi East 10.4 mph - N/A   Clear
6:33 AM 60.8 °F 53.6 °F 77% 30.05 in 10.0 mi East 8.1 mph - N/A   Clear
6:54 AM 60.8 °F 53.6 °F 77% 30.07 in 10.0 mi East 9.2 mph - N/A   Clear
7:13 AM 60.8 °F 53.6 °F 77% 30.06 in 10.0 mi East 9.2 mph - N/A   Clear
7:33 AM 60.8 °F 53.6 °F 77% 30.06 in 10.0 mi ESE 6.9 mph - N/A   Clear
7:54 AM 62.6 °F 55.4 °F 77% 30.05 in 10.0 mi ESE 9.2 mph - N/A   Clear
8:13 AM 62.6 °F 55.4 °F 77% 30.05 in 10.0 mi ESE 10.4 mph - N/A   Scattered Clouds
8:33 AM 62.6 °F 55.4 °F 77% 30.03 in 10.0 mi ESE 8.1 mph - N/A   Clear
8:54 AM 62.6 °F 55.4 °F 77% 30.02 in 10.0 mi ESE 6.9 mph - N/A   Clear
9:13 AM 64.4 °F 55.4 °F 73% 30.02 in 10.0 mi SE 9.2 mph 17.3 mph N/A   Clear
9:33 AM 66.2 °F 55.4 °F 68% 30.01 in 10.0 mi SE 9.2 mph - N/A   Clear
9:53 AM 66.2 °F 55.4 °F 68% 30.02 in 10.0 mi SE 8.1 mph - N/A   Scattered Clouds
10:13 AM 66.2 °F 53.6 °F 64% 30.02 in 10.0 mi SE 10.4 mph - N/A   Scattered Clouds
10:33 AM 68.0 °F 53.6 °F 60% 30.02 in 10.0 mi SE 9.2 mph - N/A   Mostly Cloudy
10:53 AM 69.8 °F 53.6 °F 56% 30.01 in 10.0 mi SSE 10.4 mph 17.3 mph N/A   Scattered Clouds
11:13 AM 69.8 °F 53.6 °F 56% 30.02 in 10.0 mi SSE 10.4 mph - N/A   Mostly Cloudy
11:33 AM 69.8 °F 53.6 °F 56% 30.01 in 10.0 mi SSE 9.2 mph - N/A   Overcast
11:53 AM 69.8 °F 53.6 °F 56% 30.00 in 10.0 mi South 10.4 mph 16.1 mph N/A   Overcast
12:13 PM 69.8 °F 53.6 °F 56% 29.99 in 10.0 mi South 6.9 mph - N/A   Overcast
12:33 PM 69.8 °F 53.6 °F 56% 29.98 in 10.0 mi SSE 10.4 mph - N/A   Overcast
12:53 PM 68.0 °F 53.6 °F 60% 29.97 in 10.0 mi South 6.9 mph - N/A   Light Drizzle
1:13 PM 69.8 °F 53.6 °F 56% 29.96 in 10.0 mi SE 8.1 mph - N/A   Overcast
1:33 PM 69.8 °F 53.6 °F 56% 29.95 in 10.0 mi ESE 10.4 mph - N/A   Overcast
1:53 PM 69.8 °F 53.6 °F 56% 29.95 in 10.0 mi SE 6.9 mph - N/A   Overcast
2:13 PM 69.8 °F 53.6 °F 56% 29.95 in 10.0 mi SE 9.2 mph - N/A   Overcast
2:33 PM 69.8 °F 55.4 °F 60% 29.94 in 10.0 mi SE 8.1 mph - N/A   Overcast
2:53 PM 69.8 °F 55.4 °F 60% 29.93 in 10.0 mi SE 8.1 mph - N/A   Overcast
3:13 PM 69.8 °F 53.6 °F 56% 29.93 in 10.0 mi SE 10.4 mph - N/A   Overcast
3:33 PM 68.0 °F 53.6 °F 60% 29.93 in 10.0 mi SSE 8.1 mph - N/A   Overcast
3:53 PM 68.0 °F 53.6 °F 60% 29.93 in 10.0 mi SSE 9.2 mph - N/A   Overcast
4:13 PM 68.0 °F 53.6 °F 60% 29.93 in 10.0 mi SSE 8.1 mph - N/A   Overcast
4:33 PM 66.2 °F 55.4 °F 68% 29.93 in 10.0 mi SSE 6.9 mph - N/A   Overcast
4:53 PM 66.2 °F 55.4 °F 68% 29.93 in 10.0 mi South 8.1 mph - N/A   Overcast
5:13 PM 66.2 °F 55.4 °F 68% 29.92 in 10.0 mi South 8.1 mph - N/A   Overcast
5:33 PM 66.2 °F 55.4 °F 68% 29.91 in 10.0 mi SSE 6.9 mph - N/A   Overcast
5:53 PM 66.2 °F 55.4 °F 68% 29.91 in 10.0 mi SE 4.6 mph - N/A   Overcast
6:13 PM 66.2 °F 55.4 °F 68% 29.90 in 10.0 mi ESE 4.6 mph - N/A   Overcast
6:33 PM 64.4 °F 55.4 °F 73% 29.88 in 10.0 mi ESE 8.1 mph - N/A   Overcast
6:53 PM 64.4 °F 55.4 °F 73% 29.88 in 10.0 mi SE 8.1 mph - N/A   Overcast
7:13 PM 64.4 °F 55.4 °F 73% 29.89 in 10.0 mi ESE 6.9 mph - N/A   Overcast
7:33 PM 64.4 °F 55.4 °F 73% 29.88 in 10.0 mi ESE 3.5 mph - N/A   Overcast
7:53 PM 62.6 °F 55.4 °F 77% 29.87 in 10.0 mi SE 5.8 mph - N/A   Overcast
8:13 PM 62.6 °F 55.4 °F 77% 29.87 in 10.0 mi ESE 5.8 mph - N/A   Overcast
8:33 PM 62.6 °F 55.4 °F 77% 29.87 in 10.0 mi SE 6.9 mph - N/A   Overcast
8:53 PM 62.6 °F 57.2 °F 82% 29.87 in 10.0 mi ESE 5.8 mph - N/A   Overcast
9:13 PM 62.6 °F 57.2 °F 82% 29.87 in 10.0 mi ESE 5.8 mph - N/A   Overcast
9:33 PM 62.6 °F 57.2 °F 82% 29.86 in 10.0 mi SE 4.6 mph - N/A   Overcast
9:53 PM 62.6 °F 57.2 °F 82% 29.85 in 10.0 mi SE 3.5 mph - N/A   Overcast
10:13 PM 62.6 °F 57.2 °F 82% 29.85 in 10.0 mi SE 3.5 mph - N/A   Overcast
10:34 PM 62.6 °F 57.2 °F 82% 29.84 in 10.0 mi SE 4.6 mph - N/A   Overcast
10:53 PM 62.6 °F 57.2 °F 82% 29.85 in 10.0 mi Calm Calm - N/A   Overcast
11:13 PM 62.6 °F 57.2 °F 82% 29.84 in 10.0 mi SE 3.5 mph - N/A   Overcast
11:33 PM 62.6 °F 59.0 °F 88% 29.83 in 10.0 mi SE 3.5 mph - N/A   Overcast
11:53 PM 62.6 °F 59.0 °F 88% 29.83 in 10.0 mi SE 3.5 mph - N/A   Overcast